This is the latest recevied weather packets stored in our database for station/object KA2FNK. If no packets are shown the sender has not sent any weather packets the latest 10 day(s).
| Time | Temp. | Humidity | Pressure | Rain* | Wind** | Luminosity | Snow |
|---|---|---|---|---|---|---|---|
| 1778084333 | 12.22° C | 44% | 1018.9 hPa | 0 mm | - | - | - |
| 1778084032 | 12.22° C | 44% | 1018.8 hPa | 0 mm | - | - | - |
| 1778083730 | 12.22° C | 45% | 1018.8 hPa | 0 mm | - | - | - |
| 1778083430 | 12.22° C | 45% | 1018.7 hPa | 0 mm | - | - | - |
| 1778083129 | 12.22° C | 47% | 1018.6 hPa | 0 mm | - | - | - |
| 1778082827 | 11.67° C | 47% | 1018.6 hPa | 0 mm | - | - | - |
| 1778082527 | 11.67° C | 47% | 1018.4 hPa | 0 mm | - | - | - |
| 1778082226 | 11.67° C | 47% | 1018.5 hPa | 0 mm | - | - | - |
| 1778081924 | 11.67° C | 46% | 1018.4 hPa | 0.25 mm | - | - | - |
| 1778081623 | 11.67° C | 47% | 1018.4 hPa | 0.25 mm | - | - | - |
| 1778081322 | 11.67° C | 45% | 1018.3 hPa | 0.25 mm | - | - | - |
| 1778081021 | 11.67° C | 45% | 1018.3 hPa | 0.25 mm | - | - | - |
| 1778080720 | 11.67° C | 45% | 1018.3 hPa | 0.25 mm | - | - | - |
| 1778080419 | 11.67° C | 49% | 1018.2 hPa | 0.25 mm | - | - | - |
| 1778080118 | 11.67° C | 54% | 1018.4 hPa | 0.25 mm | - | - | - |
| 1778079817 | 11.67° C | 53% | 1018.3 hPa | 0.25 mm | - | - | - |
| 1778079517 | 11.11° C | 52% | 1018.3 hPa | 0.25 mm | - | - | - |
| 1778079215 | 11.11° C | 52% | 1018.4 hPa | 0.25 mm | - | - | - |
| 1778078915 | 11.11° C | 58% | 1018.4 hPa | 0.25 mm | - | - | - |
| 1778078614 | 11.11° C | 58% | 1018.4 hPa | 0.25 mm | - | - | - |
| 1778078312 | 11.11° C | 60% | 1018.4 hPa | 0 mm | - | - | - |
| 1778078011 | 10.56° C | 60% | 1018.3 hPa | 0 mm | - | - | - |
| 1778077710 | 10.56° C | 61% | 1018.3 hPa | 0 mm | - | - | - |
| 1778077409 | 10.56° C | 61% | 1018.4 hPa | 0 mm | - | - | - |
| 1778077108 | 10.56° C | 61% | 1018.4 hPa | 0 mm | - | - | - |
* Rain latest hour (hover to see other rain measurements)
** Current wind speed in m/s (hover to see current wind gust speed)